ZHUHAI-1 02 (CAS 4B) (42759 NORAD) Tracking and Keplerian Element Data

This shows tracking and keplerian element data for the satellite.

Feedback or suggestion? Click here.




ElementValue
Catalog42759
NameZHUHAI-1 02 (CAS 4B)
Epoch Orbit13308
Epoch Day316.89620208
Epoch Year2019
RAAN142.248
Inclination43.0168
Eccentricity0.0010282
Argument of Perigee96.6118
Mean Anonmoly40.2987
Mean Motion15.09677871
Decay Rate1E-08
L11 42759U 17034B 19316.89620208 .00000001 00000-0 13590-4 0 9990
L22 42759 43.0168 142.2480 0010282 96.6118 40.2987 15.09677871133082

Live tracking and technical data element details for ZHUHAI-1 02 (CAS 4B) (NORAD 42759). ZHUHAI-1 02 (CAS 4B) can be tracked NOW for your location showing map with azimuth and elevation plus other details from your city location.

Track the satellite on the map from your city or location and see movement details for azimuth, elevation, latitude, longitude, range, height, and movement on the map or in text.







IsCatalogInMostPopularTable: catalog: 42759, numindb: 460
Update: records affected: 1



GetName: 42759 ZHUHAI-1 02 (CAS 4B)

Hit Count: updated at: Wed, 13 Nov 2019 16:44:13 GMT